| time (UTC) | temp F | wind direction | speed knots | gust knots | rain 1hr in | rain 24hr in | rain mn in | humidity % | barometer mb |
| 20260506134522 | 73 | 73 | 0.9 | 3.5 | 0.00 | 0.00 | 0.00 | 95 | 1006.6 |
| 20260506134038 | 73 | 69 | 0.9 | 3.5 | 0.00 | 0.00 | 0.00 | 95 | 1006.2 |
| 20260506133547 | 73 | 58 | 1.7 | 4.3 | 0.00 | 0.00 | 0.00 | 95 | 1006.1 |
| 20260506133006 | 73 | 86 | 1.7 | 4.3 | 0.00 | 0.00 | 0.00 | 95 | 1006.1 |
| 20260506132522 | 73 | 88 | 0.9 | 3.5 | 0.00 | 0.00 | 0.00 | 95 | 1006.1 |
| 20260506132034 | 73 | 69 | 0.9 | 3.5 | 0.00 | 0.00 | 0.00 | 96 | 1006.2 |
| 20260506131546 | 73 | 68 | 1.7 | 3.5 | 0.00 | 0.00 | 0.00 | 95 | 1006.2 |
| 20260506131010 | 73 | 71 | 0.9 | 3.5 | 0.00 | 0.00 | 0.00 | 95 | 1006.2 |
| 20260506130519 | 73 | 77 | 0.9 | 3.5 | 0.00 | 0.00 | 0.00 | 95 | 1006.2 |
| 20260506130013 | 73 | 82 | 1.7 | 3.5 | 0.00 | 0.00 | 0.00 | 95 | 1006.0 |
| 20260506125526 | 73 | 86 | 0.9 | 3.5 | 0.00 | 0.00 | 0.00 | 95 | 1006.0 |
| 20260506125040 | 73 | 66 | 0.9 | 3.5 | 0.00 | 0.00 | 0.00 | 95 | 1005.9 |
| 20260506124550 | 72 | 90 | 0.9 | 6.1 | 0.00 | 0.00 | 0.00 | 95 | 1005.8 |
| 20260506124009 | 72 | 98 | 1.7 | 6.1 | 0.00 | 0.00 | 0.00 | 95 | 1005.7 |
| 20260506123522 | 72 | 88 | 2.6 | 4.3 | 0.00 | 0.00 | 0.00 | 95 | 1005.6 |
| 20260506123030 | 72 | 102 | 1.7 | 3.5 | 0.00 | 0.00 | 0.00 | 95 | 1005.7 |
| 20260506122547 | 72 | 75 | 1.7 | 3.5 | 0.00 | 0.00 | 0.00 | 95 | 1005.8 |
| 20260506122053 | 72 | 69 | 0.9 | 2.6 | 0.00 | 0.00 | 0.00 | 95 | 1005.7 |
| 20260506121510 | 72 | 133 | 0.9 | 2.6 | 0.00 | 0.00 | 0.00 | 95 | 1005.7 |
| 20260506121026 | 72 | 134 | 0.9 | 2.6 | 0.00 | 0.00 | 0.00 | 95 | 1005.8 |
| 20260506120540 | 72 | 134 | 0.9 | 2.6 | 0.00 | 0.00 | 0.00 | 95 | 1005.8 |
| 20260506120041 | 72 | 163 | 0.9 | 1.7 | 0.00 | 0.00 | 0.00 | 95 | 1005.7 |
| 20260506115552 | 72 | 163 | 0.9 | 1.7 | 0.00 | 0.00 | 0.00 | 95 | 1005.8 |
| 20260506115009 | 73 | 163 | 0.0 | 0.9 | 0.00 | 0.00 | 0.00 | 95 | 1005.7 |
| 20260506114524 | 73 | 163 | 0.0 | 0.9 | 0.00 | 0.00 | 0.00 | 95 | 1005.7 |
| 20260506114036 | 72 | 163 | 0.0 | 0.9 | 0.00 | 0.00 | 0.00 | 94 | 1005.6 |
| 20260506113550 | 72 | 163 | 0.0 | 0.9 | 0.00 | 0.00 | 0.00 | 94 | 1005.6 |
| 20260506113010 | 72 | 163 | 0.0 | 0.9 | 0.00 | 0.00 | 0.00 | 94 | 1005.7 |
| 20260506112526 | 73 | 163 | 0.0 | 1.7 | 0.00 | 0.00 | 0.00 | 94 | 1005.8 |
| 20260506112039 | 73 | 163 | 0.0 | 1.7 | 0.00 | 0.00 | 0.00 | 94 | 1005.8 |
| 20260506111552 | 73 | 163 | 0.0 | 1.7 | 0.00 | 0.00 | 0.00 | 94 | 1005.8 |
| 20260506111008 | 73 | 163 | 0.0 | 0.9 | 0.00 | 0.00 | 0.00 | 94 | 1005.8 |
| 20260506110521 | 73 | 163 | 0.0 | 0.9 | 0.00 | 0.00 | 0.00 | 94 | 1005.7 |
| 20260506110016 | 73 | 163 | 0.0 | 0.9 | 0.00 | 0.00 | 0.00 | 94 | 1005.8 |
| 20260506105531 | 73 | 163 | 0.0 | 0.9 | 0.00 | 0.00 | 0.00 | 94 | 1005.7 |
| 20260506105046 | 73 | 163 | 0.0 | 0.9 | 0.00 | 0.00 | 0.00 | 94 | 1005.6 |
| 20260506104503 | 73 | 163 | 0.0 | 1.7 | 0.00 | 0.00 | 0.00 | 94 | 1005.5 |
| 20260506104021 | 73 | 163 | 0.0 | 1.7 | 0.00 | 0.00 | 0.00 | 94 | 1005.6 |
| 20260506103529 | 73 | 163 | 0.0 | 2.6 | 0.00 | 0.00 | 0.00 | 94 | 1005.5 |
| 20260506103039 | 73 | 163 | 0.0 | 4.3 | 0.00 | 0.00 | 0.00 | 94 | 1005.5 |
| 20260506102556 | 73 | 163 | 1.7 | 5.2 | 0.00 | 0.00 | 0.00 | 94 | 1005.4 |
| 20260506102010 | 73 | 196 | 2.6 | 6.1 | 0.00 | 0.00 | 0.00 | 94 | 1005.5 |
| 20260506101526 | 73 | 185 | 2.6 | 5.2 | 0.00 | 0.00 | 0.00 | 94 | 1005.5 |
| 20260506101035 | 73 | 190 | 0.9 | 5.2 | 0.00 | 0.00 | 0.00 | 94 | 1005.5 |
| 20260506100552 | 73 | 194 | 1.7 | 7.0 | 0.00 | 0.00 | 0.00 | 94 | 1005.4 |
| 20260506100047 | 73 | 190 | 1.7 | 7.0 | 0.00 | 0.00 | 0.00 | 94 | 1005.3 |
| 20260506095557 | 73 | 184 | 2.6 | 7.0 | 0.00 | 0.00 | 0.00 | 94 | 1005.2 |
| 20260506095019 | 73 | 197 | 2.6 | 5.2 | 0.00 | 0.00 | 0.00 | 94 | 1005.2 |
| 20260506094527 | 73 | 177 | 2.6 | 5.2 | 0.00 | 0.00 | 0.00 | 94 | 1005.4 |
| 20260506094042 | 73 | 156 | 1.7 | 7.0 | 0.00 | 0.00 | 0.00 | 94 | 1005.3 |
| 20260506093557 | 73 | 181 | 1.7 | 7.0 | 0.00 | 0.00 | 0.00 | 94 | 1005.2 |
| 20260506093018 | 73 | 227 | 1.7 | 6.1 | 0.00 | 0.00 | 0.00 | 94 | 1005.1 |
| 20260506092533 | 73 | 189 | 2.6 | 7.0 | 0.00 | 0.00 | 0.00 | 93 | 1005.0 |
| 20260506092047 | 73 | 186 | 3.5 | 7.0 | 0.00 | 0.00 | 0.00 | 93 | 1005.0 |
| 20260506091557 | 73 | 157 | 3.5 | 7.0 | 0.00 | 0.00 | 0.00 | 93 | 1005.1 |
| 20260506091505 | 73 | 177 | 3.5 | 7.0 | 0.00 | 0.00 | 0.00 | 93 | 1005.0 |
| 20260506091018 | 73 | 124 | 3.5 | 8.7 | 0.00 | 0.00 | 0.00 | 93 | 1005.0 |
| 20260506090531 | 73 | 152 | 2.6 | 8.7 | 0.00 | 0.00 | 0.00 | 93 | 1004.9 |
| 20260506090025 | 73 | 149 | 3.5 | 7.0 | 0.00 | 0.00 | 0.00 | 93 | 1004.9 |
| 20260506085543 | 73 | 161 | 2.6 | 6.1 | 0.00 | 0.00 | 0.00 | 93 | 1004.9 |
| 20260506085059 | 73 | 164 | 2.6 | 7.0 | 0.00 | 0.00 | 0.00 | 93 | 1004.9 |
| 20260506085002 | 73 | 157 | 3.5 | 7.0 | 0.00 | 0.00 | 0.00 | 93 | 1004.8 |
| 20260506084519 | 73 | 152 | 2.6 | 7.0 | 0.00 | 0.00 | 0.00 | 93 | 1004.8 |
| 20260506084027 | 73 | 136 | 3.5 | 7.0 | 0.00 | 0.00 | 0.00 | 93 | 1004.9 |
| 20260506083548 | 73 | 182 | 1.7 | 5.2 | 0.00 | 0.00 | 0.00 | 92 | 1004.9 |
| 20260506083005 | 73 | 148 | 2.6 | 7.8 | 0.00 | 0.00 | 0.00 | 92 | 1004.9 |
| 20260506082520 | 73 | 138 | 2.6 | 11.3 | 0.00 | 0.00 | 0.00 | 92 | 1005.0 |
| 20260506082029 | 73 | 169 | 5.2 | 8.7 | 0.00 | 0.00 | 0.00 | 92 | 1005.0 |
| 20260506081547 | 74 | 181 | 5.2 | 8.7 | 0.00 | 0.00 | 0.00 | 92 | 1004.9 |
| 20260506081011 | 74 | 131 | 1.7 | 9.6 | 0.00 | 0.00 | 0.00 | 92 | 1004.9 |
| 20260506080517 | 74 | 160 | 6.1 | 9.6 | 0.00 | 0.00 | 0.00 | 92 | 1005.0 |
| 20260506073526 | 74 | 154 | 3.5 | 11.3 | 0.00 | 0.00 | 0.00 | 92 | 1005.3 |
| 20260506073031 | 74 | 130 | 6.1 | 11.3 | 0.00 | 0.00 | 0.00 | 92 | 1005.4 |
| 20260506072548 | 74 | 149 | 4.3 | 8.7 | 0.00 | 0.00 | 0.00 | 92 | 1005.3 |
| 20260506072056 | 74 | 158 | 4.3 | 8.7 | 0.00 | 0.00 | 0.00 | 92 | 1005.2 |
| 20260506072003 | 74 | 165 | 6.1 | 8.7 | 0.00 | 0.00 | 0.00 | 92 | 1005.3 |
| 20260506071519 | 74 | 142 | 3.5 | 9.6 | 0.00 | 0.00 | 0.00 | 92 | 1005.4 |
| 20260506071026 | 74 | 153 | 4.3 | 9.6 | 0.00 | 0.00 | 0.00 | 91 | 1005.5 |
| 20260506070542 | 74 | 148 | 4.3 | 7.0 | 0.00 | 0.00 | 0.00 | 91 | 1005.6 |
| 20260506062035 | 75 | 167 | 5.2 | 9.6 | 0.00 | 0.00 | 0.00 | 91 | 1005.5 |
| 20260506061549 | 75 | 166 | 4.3 | 9.6 | 0.00 | 0.00 | 0.00 | 91 | 1005.5 |
| 20260506061058 | 75 | 141 | 4.3 | 9.6 | 0.00 | 0.00 | 0.00 | 90 | 1005.5 |
| 20260506060513 | 75 | 161 | 4.3 | 9.6 | 0.00 | 0.00 | 0.00 | 90 | 1005.7 |
| 20260506051020 | 75 | 154 | 5.2 | 10.4 | 0.00 | 0.00 | 0.00 | 90 | 1005.7 |
| 20260506050535 | 75 | 66 | 2.6 | 8.7 | 0.00 | 0.00 | 0.00 | 90 | 1005.8 |
| 20260506045057 | 75 | 161 | 3.5 | 9.6 | 0.00 | 0.00 | 0.00 | 90 | 1005.7 |
| 20260506044515 | 75 | 154 | 4.3 | 12.2 | 0.00 | 0.00 | 0.00 | 90 | 1005.7 |
| 20260506044025 | 75 | 131 | 4.3 | 12.2 | 0.00 | 0.00 | 0.00 | 90 | 1005.7 |
| 20260506043537 | 75 | 138 | 3.5 | 8.7 | 0.00 | 0.00 | 0.00 | 90 | 1005.6 |